Regional Weather Roundup
Issued by NWS Goodland, KS

Current Version | Previous Version | Text Only | Print | Product List | Glossary On
Versions: 1 2 3 4 5 6 7 8 9 10 11 12 13 14 15 16 17 18 19 20 21 22 23 24 25 26 27 28 29 30 31 32 33 34 35 36 37 38 39 40 41 42 43 44 45 46 47 48 49 50
000
ASUS43 KGLD 050208
RWRGLD

GOODLAND FORECAST AREA HOURLY WEATHER ROUNDUP
NATIONAL WEATHER SERVICE GOODLAND KS
800 PM MDT MON MAY 04 2015

...OFFICIAL OBSERVATIONS...

CITY           SKY/WX    TMP DP  RH WIND       PRES   REMARKS
GOODLAND KS    CLOUDY    53  45  74 NE15      30.07R
HILL CITY KS   CLOUDY    61  52  72 NE15      30.07R
IMPERIAL NEB   CLOUDY    49  45  86 E8        30.10R
MCCOOK NEB     CLOUDY    54  49  83 NE10      30.07S
AKRON CO       CLOUDY    49  45  86 E13       30.09S
BURLINGTON CO  CLOUDY    55  47  74 NE13      30.07R
LIMON CO       CLOUDY    53  46  77 E20G25    30.07R
$$

...UNOFFICIAL OBSERVATIONS...

CITY           SKY/WX    TMP DP  RH WIND       PRES   REMARKS
COLBY KS       CLEAR     54  48  82 N15       30.09R
GOVE KS          N/A     62  32  32 MISG        N/A
LENORA KS        N/A     56  32  40 MISG        N/A
NORTON KS      CLOUDY    55  46  71 NE10      30.07R
SHARON SPRINGS   N/A     58  54  86 MISG        N/A
KIT CARSON CO    N/A     53  49  85 MISG        N/A
YUMA CO          N/A     49  45  85 E9          N/A
$$


USA.gov is the U.S. government's official web portal to all federal, state and local government web resources and services.